星链-31889 (STARLINK-31889 )

导读

STARLINK-31889是美国SpaceX星链互联网星座的一员,于2024年5月23日发射升空,星链项目旨在构建覆盖全球的低轨卫星互联网,为全球偏远地区、海洋、航空等场景提供高速低延迟网络接入服务,STARLINK-31889的入轨进一步拓展了星链星座的全球服务覆盖范围,也提升了星座整体的服务能力。

Basic Information
目录编号:
59847
目录名称:
STARLINK-31889
国际标识:
2024-097N
轨道中心:
EARTH
卫星名称:
星链-31889
卫星全名:
星链-31889 (STARLINK-31889 )
卫星状态:
在轨 (已飞行842 天)
发射日期:
2024-05-23 UTC
国别 :
美国 (US)
星等 :
--
This satellite is enrolled in the Space Conjunction Data Service (SCDS) and the current flight risk assessment level is: No High Risk
Orbit Information
数据来源 国际轨道数据 AOE轨道数据
星历时间 2026-09-11T20:42:18+0800
13小时前
查看轨道信息
2026-09-06T08:00:00+0800
6天前
查看轨道信息
半长轴 6861.199km 6861.181km
偏心率 0.0001499 0.0002264
轨道倾角 43.004° 43.006°
近地点辐角 275.516° 273.840°
升交点赤经 305.259° 336.489°
平近点角 84.552° 242.995°
近地点 482.033km 481.49km
远地点 484.091km 484.598km
周期 94.267分钟 94.267分钟
每日圈数 15.275758 15.275818
Detailed Information
固有亮度:
5
最大亮度:
1.5
卫星平台:
Starlink v2.0 mini
覆盖范围:
全球
运营商:
太空探索技术公司
运营商所在国:
美国
制造商(研发单位):
太空探索技术公司
制造商所在国:
美国
使用方式:
暂无
Satellite Introduction
星链(Starlink)计划是由太空探索技术公司(SpaceX)提出的一个巨型低轨卫星互联网星座项目,计划在2019年至2024年间在太空搭建由约1.2万颗卫星组成的“星链”网络,其中1584颗将部署在地球上空550千米处的近地轨道,并从2020年开始工作。该卫星仍在工作。
2D Orbit Map
3D Orbit Map
Orbit Altitude Analysis Chart
Orbit Inclination Analysis Chart
Orbit Comprehensive Analysis Chart
View Comprehensive Chart
Miss Distance Evolution Trend with All Objects
Collision Probability Evolution Trend with All Objects